Weather History for KK22 - November, 2012

Change the Weather History Date:

Friday, November 2, 2012

  Actual Average (KJKL) Record (KJKL)
Temperature  
Mean Temperature 48 °F 53 °F  
Max Temperature 55 °F 63 °F 82 °F (2004)
Min Temperature 41 °F 44 °F 27 °F (1993)
Degree Days  
Heating Degree Days 17 12  
Month to date heating degree days 24  
Since 1 July heating degree days 321  
Cooling Degree Days 0 0  
Month to date cooling degree days 0  
Year to date cooling degree days 1150  
Moisture  
Dew Point 28 °F    
Average Humidity 45    
Maximum Humidity 58    
Minimum Humidity 35    
Precipitation  
Precipitation 0.00 in 0.12 in 0.83 in (1999)
Month to date precipitation 0.25  
Year to date precipitation 40.45  
Snow  
Snow - 0.00 in - ()
Month to date snowfall 0.0  
Since 1 July snowfall 0.1  
Since 1 September snowfall 0.1  
Snow Depth -    
Sea Level Pressure  
Sea Level Pressure 29.98 in    
Wind  
Wind Speed 4 mph ()    
Max Wind Speed 8 mph    
Max Gust Speed 16 mph    
Visibility 10.0 miles    
Events      
T = Trace of Precipitation, MM = Missing Value Source: Averaged Metar Reports

Daily Weather History Graph

Daily Weather History Graph

Search for Another Location

Airport or City:

Trip Planner

Search our weather history database for the weather conditions in past years. The results will help you decide how hot, cold, wet, or windy it might be!

Date:

Astronomy

Nov. 02, 2012 Rise Set
Actual Time 7:57 AM EDT 6:30 PM EDT
Civil Twilight 7:30 AM EDT 6:57 PM EDT
Nautical Twilight 6:59 AM EDT 7:28 PM EDT
Astronomical Twilight 6:28 AM EDT 7:59 PM EDT
Moon 9:18 PM EDT (11/2) 11:14 AM EDT (11/2)
Length of Visible Light 11h 27m
Length of Day
10h 32m
Waning Gibbous, 87% of the Moon is Illuminated
Nov 2
Waning Gibbous
Nov 6
Last Quarter
Nov 13
New
Nov 20
First Quarter
Nov 28
Full

Hourly Weather History & Observations

Time (EDT) Temp. Windchill Dew Point Humidity Pressure Visibility Wind Dir Wind Speed Gust Speed Precip Events Conditions
12:15 AM 46.4 °F 44.3 °F 23.2 °F 40% 29.93 in 10.0 mi WSW 4.6 mph - N/A   Overcast
12:35 AM 46.0 °F 44.8 °F 23.5 °F 41% 29.93 in 10.0 mi WSW 3.5 mph - N/A   Overcast
12:55 AM 46.2 °F 45.0 °F 23.5 °F 41% 29.92 in 10.0 mi WSW 3.5 mph - N/A   Overcast
1:15 AM 46.2 °F 45.0 °F 23.7 °F 41% 29.92 in 10.0 mi West 3.5 mph - N/A   Overcast
1:35 AM 45.7 °F 44.4 °F 24.3 °F 43% 29.92 in 10.0 mi West 3.5 mph - N/A   Overcast
1:55 AM 46.2 °F 44.1 °F 23.9 °F 42% 29.91 in 10.0 mi WSW 4.6 mph - N/A   Overcast
2:15 AM 46.4 °F 44.3 °F 24.1 °F 42% 29.91 in 10.0 mi West 4.6 mph - N/A   Overcast
2:35 AM 46.8 °F - 24.6 °F 42% 29.91 in 10.0 mi WSW 4.6 mph - N/A   Overcast
2:55 AM 46.4 °F 44.3 °F 25.5 °F 44% 29.91 in 10.0 mi West 4.6 mph - N/A   Overcast
3:15 AM 46.4 °F 44.3 °F 25.9 °F 45% 29.91 in 10.0 mi WSW 4.6 mph - N/A   Overcast
3:35 AM 46.4 °F 44.3 °F 26.2 °F 45% 29.90 in 10.0 mi WSW 4.6 mph - N/A   Overcast
3:55 AM 46.4 °F 44.3 °F 26.2 °F 45% 29.89 in 10.0 mi WSW 4.6 mph - N/A   Overcast
4:15 AM 46.8 °F - 26.4 °F 45% 29.89 in 10.0 mi WSW 4.6 mph - N/A   Overcast
4:35 AM 46.6 °F - 26.4 °F 45% 29.88 in 10.0 mi SW 3.5 mph - N/A   Overcast
4:55 AM 46.8 °F - 26.6 °F 45% 29.88 in 10.0 mi WSW 4.6 mph - N/A   Overcast
5:15 AM 46.8 °F - 26.6 °F 45% 29.88 in 10.0 mi SW 4.6 mph - N/A   Overcast
5:35 AM 46.6 °F - 26.8 °F 46% 29.88 in 10.0 mi SW 3.5 mph - N/A   Overcast
5:55 AM 46.8 °F - 27.0 °F 46% 29.87 in 10.0 mi Calm Calm - N/A   Overcast
6:15 AM 46.8 °F - 27.1 °F 46% 29.87 in 10.0 mi SSW 3.5 mph - N/A   Overcast
6:35 AM 46.4 °F 45.2 °F 27.7 °F 48% 29.87 in 10.0 mi SW 3.5 mph - N/A   Overcast
6:55 AM 46.4 °F 44.3 °F 28.8 °F 50% 29.88 in 10.0 mi WSW 4.6 mph - N/A   Overcast
7:15 AM 46.6 °F - 29.3 °F 51% 29.88 in 10.0 mi West 3.5 mph - N/A   Overcast
7:35 AM 46.8 °F - 29.3 °F 51% 29.88 in 10.0 mi West 4.6 mph - N/A   Overcast
7:55 AM 46.9 °F - 30.0 °F 52% 29.89 in 10.0 mi West 4.6 mph - N/A   Overcast
8:15 AM 47.3 °F - 30.7 °F 53% 29.90 in 10.0 mi West 8.1 mph - N/A   Overcast
8:35 AM 47.5 °F - 31.3 °F 53% 29.91 in 10.0 mi WNW 5.8 mph - N/A   Overcast
9:55 AM 46.4 °F 44.3 °F 30.6 °F 54% 29.97 in 10.0 mi North 4.6 mph - N/A   Overcast
10:15 AM 47.5 °F - 30.4 °F 52% 29.98 in 10.0 mi NNW 3.5 mph - N/A   Scattered Clouds
10:35 AM 47.3 °F - 29.7 °F 50% 29.99 in 10.0 mi North 8.1 mph - N/A   Mostly Cloudy
10:55 AM 47.5 °F - 29.7 °F 50% 30.00 in 10.0 mi North 8.1 mph 16.1 mph N/A   Mostly Cloudy
11:15 AM 48.4 °F - 30.0 °F 49% 30.00 in 10.0 mi NNW 6.9 mph - N/A   Scattered Clouds
11:35 AM 50.4 °F - 30.6 °F 47% 30.00 in 10.0 mi NNW 4.6 mph - N/A   Clear
11:55 AM 49.6 °F - 28.4 °F 44% 30.00 in 10.0 mi NW 5.8 mph - N/A   Clear
12:15 PM 51.1 °F - 28.8 °F 42% 30.00 in 10.0 mi North 8.1 mph - N/A   Clear
12:35 PM 51.1 °F - 28.6 °F 42% 30.00 in 10.0 mi North 4.6 mph - N/A   Clear
12:55 PM 51.8 °F - 28.9 °F 41% 30.00 in 10.0 mi NNW 8.1 mph - N/A   Clear
1:15 PM 52.7 °F - 29.7 °F 41% 29.99 in 10.0 mi North 4.6 mph - N/A   Clear
1:35 PM 52.7 °F - 29.5 °F 41% 29.99 in 10.0 mi North 6.9 mph - N/A   Clear
1:55 PM 52.7 °F - 28.9 °F 40% 29.98 in 10.0 mi WSW 5.8 mph - N/A   Clear
2:15 PM 54.0 °F - 30.0 °F 40% 29.98 in 10.0 mi North 6.9 mph - N/A   Clear
2:35 PM 53.6 °F - 29.1 °F 39% 29.98 in 10.0 mi West 4.6 mph - N/A   Clear
2:55 PM 54.0 °F - 28.9 °F 38% 29.98 in 10.0 mi NNW 6.9 mph - N/A   Clear
3:15 PM 54.5 °F - 28.8 °F 37% 29.99 in 10.0 mi WNW 5.8 mph - N/A   Clear
3:35 PM 54.5 °F - 28.2 °F 36% 29.99 in 10.0 mi WNW 5.8 mph - N/A   Clear
3:55 PM 55.2 °F - 28.8 °F 36% 29.99 in 10.0 mi NNW 4.6 mph - N/A   Clear
4:15 PM 55.0 °F - 28.0 °F 35% 29.99 in 10.0 mi WNW 5.8 mph - N/A   Clear
4:35 PM 54.7 °F - 28.2 °F 36% 30.00 in 10.0 mi NW 4.6 mph - N/A   Clear
4:55 PM 54.9 °F - 27.7 °F 35% 30.00 in 10.0 mi WNW 5.8 mph - N/A   Clear
5:15 PM 54.3 °F - 27.7 °F 36% 30.01 in 10.0 mi WNW 8.1 mph - N/A   Clear
5:55 PM 51.8 °F - 25.7 °F 36% 30.02 in 10.0 mi NW 6.9 mph - N/A   Clear
6:15 PM 51.4 °F - 26.1 °F 37% 30.03 in 10.0 mi NW 6.9 mph - N/A   Clear
6:35 PM 50.2 °F - 26.4 °F 40% 30.03 in 10.0 mi NW 3.5 mph - N/A   Clear
6:55 PM 49.3 °F - 26.8 °F 42% 30.04 in 10.0 mi NW 4.6 mph - N/A   Clear
7:15 PM 48.6 °F - 27.3 °F 44% 30.05 in 10.0 mi NW 4.6 mph - N/A   Clear
7:55 PM 47.5 °F - 27.5 °F 46% 30.06 in 10.0 mi Calm Calm - N/A   Clear
8:15 PM 47.5 °F - 27.5 °F 46% 30.06 in 10.0 mi NW 4.6 mph - N/A   Clear
8:35 PM 47.5 °F - 27.1 °F 45% 30.07 in 10.0 mi NNW 5.8 mph - N/A   Clear
8:55 PM 46.8 °F - 27.0 °F 46% 30.07 in 10.0 mi NNW 4.6 mph - N/A   Clear
9:15 PM 46.6 °F - 27.1 °F 47% 30.08 in 10.0 mi NNW 3.5 mph - N/A   Clear
9:35 PM 45.9 °F - 27.1 °F 48% 30.08 in 10.0 mi Calm Calm - N/A   Clear
9:55 PM 44.6 °F 43.1 °F 27.3 °F 51% 30.09 in 10.0 mi North 3.5 mph - N/A   Clear
10:15 PM 43.7 °F 42.1 °F 27.9 °F 54% 30.09 in 10.0 mi North 3.5 mph - N/A   Clear
10:35 PM 43.7 °F - 27.9 °F 54% 30.10 in 10.0 mi Calm Calm - N/A   Clear
10:55 PM 43.5 °F 41.9 °F 28.0 °F 54% 30.10 in 10.0 mi North 3.5 mph - N/A   Clear
11:15 PM 42.6 °F - 28.2 °F 57% 30.10 in 10.0 mi Calm Calm - N/A   Clear
11:35 PM 41.9 °F - 28.2 °F 58% 30.11 in 10.0 mi Calm Calm - N/A   Clear
11:55 PM 41.9 °F - 28.2 °F 58% 30.10 in 10.0 mi Calm Calm - N/A   Clear